Location: Brantley
(31.5822°N, 86.2569°W)
Time: 12:51:00
(UTC+00:00)

Courier 1B - Pass Details

Date: 25 February 2026
Orbit: 962 x 1208 km, 28.3° (Epoch: 11 March)

Event Time Altitude Azimuth Distance (km) Brightness Sun altitude
Rises 02:20:24 0° 273° (W) 3,836 11.6 -34.9°
Reaches altitude 10° 02:23:07 10° 269° (W) 2,916 10.7 -35.5°
Enters shadow 02:28:36 47° 233° (SW) 1,438 8.4 -36.6°
Maximum altitude 02:30:06 55° 193° (SSW) 1,331 - -36.9°
Drops below altitude 10° 02:37:31 10° 118° (ESE) 3,081 - -38.5°
Sets 02:40:28 0° 114° (ESE) 4,067 - -39.1°
